Wetterdaten: Sonntag, 06.09.2009
Datum Zeit Temp. a Sch. Temp. a Son. Temp. a Bod. Feuchte a. Luftdruck Regen Wind Richtung Richtung Sonnenschein Helligkeit Taupunkt Windchill
06.09.2009 00:00 7,4 C 8,2 C 8,8 C 89 % 1024 hPa 0,0 l/m 0,0 m/s (0 Bft) W-SW 240 0 min 0 lux 5,7 C 7,4 C
06.09.2009 00:05 7,3 C 8,1 C 9,0 C 89 % 1024 hPa 0,0 l/m 0,0 m/s (0 Bft) W-SW 240 0 min 0 lux 5,6 C 7,3 C
06.09.2009 00:10 7,3 C 8,1 C 8,6 C 89 % 1024 hPa 0,0 l/m 0,0 m/s (0 Bft) W-SW 240 0 min 0 lux 5,6 C 7,3 C
06.09.2009 00:15 7,2 C 7,9 C 8,7 C 89 % 1024 hPa 0,0 l/m 0,0 m/s (0 Bft) W-SW 240 0 min 0 lux 5,5 C 7,2 C
06.09.2009 00:20 7,2 C 7,9 C 8,7 C 89 % 1024 hPa 0,0 l/m 0,0 m/s (0 Bft) W-SW 240 0 min 0 lux 5,5 C 7,2 C
06.09.2009 00:25 7,2 C 7,8 C 8,7 C 89 % 1024 hPa 0,0 l/m 0,0 m/s (0 Bft) W-SW 240 0 min 0 lux 5,5 C 7,2 C
06.09.2009 00:30 7,2 C 7,7 C 8,5 C 89 % 1024 hPa 0,0 l/m 0,0 m/s (0 Bft) W-SW 240 0 min 0 lux 5,5 C 7,2 C
06.09.2009 00:35 7,1 C 7,7 C 8,5 C 89 % 1024 hPa 0,0 l/m 0,0 m/s (0 Bft) W-SW 240 0 min 0 lux 5,4 C 7,1 C
06.09.2009 00:40 7,0 C 7,6 C 8,3 C 89 % 1024 hPa 0,0 l/m 0,0 m/s (0 Bft) W-SW 240 0 min 0 lux 5,3 C 7,0 C
06.09.2009 00:45 7,0 C 7,5 C 8,4 C 89 % 1024 hPa 0,0 l/m 0,0 m/s (0 Bft) W-SW 240 0 min 0 lux 5,3 C 7,0 C
06.09.2009 00:50 6,8 C 7,5 C 8,4 C 90 % 1024 hPa 0,0 l/m 0,0 m/s (0 Bft) W-SW 240 0 min 0 lux 5,3 C 6,8 C
06.09.2009 00:55 6,8 C 7,3 C 8,5 C 90 % 1024 hPa 0,0 l/m 0,0 m/s (0 Bft) W-SW 240 0 min 0 lux 5,3 C 6,8 C
06.09.2009 01:00 6,7 C 7,3 C 7,9 C 90 % 1024 hPa 0,0 l/m 0,0 m/s (0 Bft) W-SW 240 0 min 0 lux 5,2 C 6,7 C
06.09.2009 01:05 6,6 C 7,2 C 8,1 C 90 % 1024 hPa 0,0 l/m 0,0 m/s (0 Bft) W-SW 240 0 min 0 lux 5,1 C 6,6 C
06.09.2009 01:10 6,6 C 7,2 C 8,1 C 90 % 1024 hPa 0,0 l/m 0,0 m/s (0 Bft) W-SW 240 0 min 0 lux 5,1 C 6,6 C
06.09.2009 01:15 6,6 C 7,1 C 7,9 C 91 % 1024 hPa 0,0 l/m 0,0 m/s (0 Bft) W-SW 240 0 min 0 lux 5,2 C 6,6 C
06.09.2009 01:20 6,6 C 7,1 C 7,8 C 90 % 1024 hPa 0,0 l/m 0,0 m/s (0 Bft) W-SW 240 0 min 0 lux 5,1 C 6,6 C
06.09.2009 01:25 6,4 C 7,0 C 8,0 C 91 % 1024 hPa 0,0 l/m 0,0 m/s (0 Bft) W-SW 240 0 min 0 lux 5,0 C 6,4 C
06.09.2009 01:30 6,3 C 7,0 C 7,8 C 91 % 1024 hPa 0,0 l/m 0,0 m/s (0 Bft) W-SW 240 0 min 0 lux 4,9 C 6,3 C
06.09.2009 01:35 6,2 C 6,9 C 7,7 C 90 % 1024 hPa 0,0 l/m 0,0 m/s (0 Bft) W-SW 240 0 min 0 lux 4,7 C 6,2 C
06.09.2009 01:40 6,2 C 6,8 C 7,8 C 91 % 1024 hPa 0,0 l/m 0,0 m/s (0 Bft) W-SW 240 0 min 0 lux 4,8 C 6,2 C
06.09.2009 01:45 6,1 C 6,7 C 7,5 C 90 % 1024 hPa 0,0 l/m 0,0 m/s (0 Bft) W-SW 240 0 min 0 lux 4,6 C 6,1 C
06.09.2009 01:50 6,1 C 6,7 C 7,3 C 90 % 1024 hPa 0,0 l/m 0,0 m/s (0 Bft) W-SW 240 0 min 0 lux 4,6 C 6,1 C
06.09.2009 01:55 6,0 C 6,7 C 7,6 C 90 % 1024 hPa 0,0 l/m 0,0 m/s (0 Bft) W-SW 240 0 min 0 lux 4,5 C 6,0 C
06.09.2009 02:01 6,0 C 6,6 C 7,6 C 90 % 1024 hPa 0,0 l/m 0,0 m/s (0 Bft) W-SW 240 0 min 0 lux 4,5 C 6,0 C
06.09.2009 02:05 6,0 C 6,6 C 7,7 C 90 % 1024 hPa 0,0 l/m 0,0 m/s (0 Bft) W-SW 240 0 min 0 lux 4,5 C 6,0 C
06.09.2009 02:10 6,0 C 6,6 C 7,6 C 90 % 1024 hPa 0,0 l/m 0,0 m/s (0 Bft) W-SW 240 0 min 0 lux 4,5 C 6,0 C
06.09.2009 02:15 6,0 C 6,5 C 7,5 C 90 % 1024 hPa 0,0 l/m 0,0 m/s (0 Bft) W-SW 240 0 min 0 lux 4,5 C 6,0 C
06.09.2009 02:20 5,9 C 6,5 C 7,4 C 90 % 1024 hPa 0,0 l/m 0,0 m/s (0 Bft) W-SW 240 0 min 0 lux 4,4 C 5,9 C
06.09.2009 02:25 5,9 C 6,5 C 7,4 C 90 % 1024 hPa 0,0 l/m 0,0 m/s (0 Bft) W-SW 240 0 min 0 lux 4,4 C 5,9 C
06.09.2009 02:30 5,8 C 6,4 C 7,5 C 90 % 1024 hPa 0,0 l/m 0,0 m/s (0 Bft) W-SW 240 0 min 0 lux 4,3 C 5,8 C
06.09.2009 02:35 5,8 C 6,4 C 7,6 C 91 % 1024 hPa 0,0 l/m 0,0 m/s (0 Bft) W-SW 240 0 min 0 lux 4,4 C 5,8 C
06.09.2009 02:40 5,7 C 6,4 C 7,3 C 90 % 1024 hPa 0,0 l/m 0,0 m/s (0 Bft) W-SW 240 0 min 0 lux 4,2 C 5,7 C
06.09.2009 02:45 5,7 C 6,3 C 7,4 C 91 % 1024 hPa 0,0 l/m 0,0 m/s (0 Bft) W-SW 240 0 min 0 lux 4,3 C 5,7 C
06.09.2009 02:50 5,7 C 6,3 C 7,5 C 91 % 1024 hPa 0,0 l/m 0,0 m/s (0 Bft) W-SW 240 0 min 0 lux 4,3 C 5,7 C
06.09.2009 02:55 5,6 C 6,3 C 7,1 C 91 % 1024 hPa 0,0 l/m 0,0 m/s (0 Bft) W-SW 240 0 min 0 lux 4,2 C 5,6 C
06.09.2009 03:00 5,6 C 6,3 C 7,1 C 91 % 1024 hPa 0,0 l/m 0,0 m/s (0 Bft) W-SW 240 0 min 0 lux 4,2 C 5,6 C
06.09.2009 03:05 5,6 C 6,3 C 7,1 C 91 % 1024 hPa 0,0 l/m 0,0 m/s (0 Bft) W-SW 240 0 min 0 lux 4,2 C 5,6 C
06.09.2009 03:10 5,6 C 6,3 C 7,2 C 91 % 1024 hPa 0,0 l/m 0,0 m/s (0 Bft) W-SW 240 0 min 0 lux 4,2 C 5,6 C
06.09.2009 03:15 5,6 C 6,3 C 7,2 C 91 % 1024 hPa 0,0 l/m 0,0 m/s (0 Bft) W-SW 240 0 min 0 lux 4,2 C 5,6 C
06.09.2009 03:20 5,6 C 6,3 C 7,3 C 92 % 1024 hPa 0,0 l/m 0,0 m/s (0 Bft) W-SW 240 0 min 0 lux 4,4 C 5,6 C
06.09.2009 03:25 5,6 C 6,2 C 7,2 C 93 % 1024 hPa 0,0 l/m 0,0 m/s (0 Bft) W-SW 240 0 min 0 lux 4,6 C 5,6 C
06.09.2009 03:30 5,6 C 6,2 C 7,1 C 93 % 1024 hPa 0,0 l/m 0,0 m/s (0 Bft) W-SW 240 0 min 0 lux 4,6 C 5,6 C
06.09.2009 03:35 5,4 C 6,1 C 7,0 C 92 % 1024 hPa 0,0 l/m 0,0 m/s (0 Bft) W-SW 240 0 min 0 lux 4,2 C 5,4 C
06.09.2009 03:40 5,3 C 6,0 C 6,8 C 92 % 1024 hPa 0,0 l/m 0,0 m/s (0 Bft) W-SW 240 0 min 0 lux 4,1 C 5,3 C
06.09.2009 03:45 5,2 C 5,9 C 6,8 C 92 % 1024 hPa 0,0 l/m 0,0 m/s (0 Bft) W-SW 240 0 min 0 lux 4,0 C 5,2 C
06.09.2009 03:50 5,1 C 5,9 C 6,9 C 92 % 1024 hPa 0,0 l/m 0,0 m/s (0 Bft) W-SW 240 0 min 0 lux 3,9 C 5,1 C
06.09.2009 03:55 5,1 C 5,8 C 6,7 C 92 % 1024 hPa 0,0 l/m 0,0 m/s (0 Bft) W-SW 240 0 min 0 lux 3,9 C 5,1 C
06.09.2009 04:00 4,9 C 5,8 C 6,5 C 92 % 1025 hPa 0,0 l/m 0,0 m/s (0 Bft) W-SW 240 0 min 0 lux 3,7 C 4,9 C
06.09.2009 04:05 4,8 C 5,7 C 6,6 C 92 % 1025 hPa 0,0 l/m 0,0 m/s (0 Bft) W-SW 240 0 min 0 lux 3,6 C 4,8 C
06.09.2009 04:10 4,8 C 5,6 C 6,5 C 92 % 1025 hPa 0,0 l/m 0,0 m/s (0 Bft) W-SW 240 0 min 0 lux 3,6 C 4,8 C
06.09.2009 04:15 4,8 C 5,5 C 6,7 C 92 % 1025 hPa 0,0 l/m 0,0 m/s (0 Bft) W-SW 240 0 min 0 lux 3,6 C 4,8 C
06.09.2009 04:20 4,8 C 5,5 C 6,4 C 92 % 1025 hPa 0,0 l/m 0,0 m/s (0 Bft) W-SW 240 0 min 0 lux 3,6 C 4,8 C
06.09.2009 04:25 4,7 C 5,5 C 6,6 C 92 % 1025 hPa 0,0 l/m 0,0 m/s (0 Bft) W-SW 240 0 min 0 lux 3,5 C 4,7 C
06.09.2009 04:30 4,7 C 5,4 C 6,5 C 92 % 1025 hPa 0,0 l/m 0,0 m/s (0 Bft) W-SW 240 0 min 0 lux 3,5 C 4,7 C
06.09.2009 04:35 4,7 C 5,3 C 6,6 C 92 % 1025 hPa 0,0 l/m 0,0 m/s (0 Bft) W-SW 240 0 min 0 lux 3,5 C 4,7 C
06.09.2009 04:40 4,7 C 5,3 C 6,6 C 92 % 1025 hPa 0,0 l/m 0,0 m/s (0 Bft) W-SW 240 0 min 0 lux 3,5 C 4,7 C
06.09.2009 04:45 4,7 C 5,3 C 6,4 C 92 % 1025 hPa 0,0 l/m 0,0 m/s (0 Bft) W-SW 240 0 min 0 lux 3,5 C 4,7 C
06.09.2009 04:50 4,6 C 5,2 C 6,5 C 92 % 1025 hPa 0,0 l/m 0,0 m/s (0 Bft) W-SW 240 0 min 0 lux 3,4 C 4,6 C
06.09.2009 04:55 4,5 C 5,2 C 6,3 C 92 % 1025 hPa 0,0 l/m 0,0 m/s (0 Bft) W-SW 240 0 min 0 lux 3,3 C 4,5 C
06.09.2009 05:00 4,5 C 5,2 C 6,2 C 92 % 1025 hPa 0,0 l/m 0,0 m/s (0 Bft) W-SW 240 0 min 0 lux 3,3 C 4,5 C
06.09.2009 05:05 4,7 C 5,3 C 6,2 C 92 % 1025 hPa 0,0 l/m 0,0 m/s (0 Bft) W-SW 240 0 min 0 lux 3,5 C 4,7 C
06.09.2009 05:10 4,7 C 5,3 C 6,5 C 93 % 1025 hPa 0,0 l/m 0,0 m/s (0 Bft) W-SW 240 0 min 0 lux 3,7 C 4,7 C
06.09.2009 05:15 4,9 C 5,3 C 6,5 C 93 % 1025 hPa 0,0 l/m 0,0 m/s (0 Bft) W-SW 240 0 min 0 lux 3,9 C 4,9 C
06.09.2009 05:20 4,9 C 5,5 C 6,5 C 92 % 1025 hPa 0,0 l/m 0,0 m/s (0 Bft) W-SW 240 0 min 0 lux 3,7 C 4,9 C
06.09.2009 05:25 4,9 C 5,5 C 6,3 C 92 % 1024 hPa 0,0 l/m 0,0 m/s (0 Bft) W-SW 240 0 min 0 lux 3,7 C 4,9 C
06.09.2009 05:30 4,9 C 5,6 C 6,4 C 92 % 1025 hPa 0,0 l/m 0,0 m/s (0 Bft) W-SW 240 0 min 0 lux 3,7 C 4,9 C
06.09.2009 05:35 5,2 C 5,6 C 6,7 C 92 % 1025 hPa 0,0 l/m 0,0 m/s (0 Bft) W-SW 240 0 min 0 lux 4,0 C 5,2 C
06.09.2009 05:40 5,2 C 5,6 C 6,6 C 92 % 1025 hPa 0,0 l/m 0,0 m/s (0 Bft) W-SW 240 0 min 0 lux 4,0 C 5,2 C
06.09.2009 05:45 5,2 C 5,7 C 6,3 C 92 % 1025 hPa 0,0 l/m 0,0 m/s (0 Bft) W-SW 240 0 min 0 lux 4,0 C 5,2 C
06.09.2009 05:50 5,1 C 5,6 C 6,3 C 92 % 1025 hPa 0,0 l/m 0,0 m/s (0 Bft) W-SW 240 0 min 0 lux 3,9 C 5,1 C
06.09.2009 05:55 4,9 C 5,6 C 6,3 C 92 % 1025 hPa 0,0 l/m 0,0 m/s (0 Bft) W-SW 240 0 min 0 lux 3,7 C 4,9 C
06.09.2009 06:00 4,8 C 5,5 C 6,5 C 92 % 1025 hPa 0,0 l/m 0,0 m/s (0 Bft) W-SW 240 0 min 0 lux 3,6 C 4,8 C
06.09.2009 06:05 4,7 C 5,5 C 6,2 C 92 % 1025 hPa 0,0 l/m 0,0 m/s (0 Bft) W-SW 240 0 min 0 lux 3,5 C 4,7 C
06.09.2009 06:10 4,6 C 5,4 C 6,4 C 92 % 1025 hPa 0,0 l/m 0,0 m/s (0 Bft) W-SW 240 0 min 0 lux 3,4 C 4,6 C
06.09.2009 06:15 4,6 C 5,3 C 6,0 C 92 % 1025 hPa 0,0 l/m 0,0 m/s (0 Bft) W-SW 240 0 min 0 lux 3,4 C 4,6 C
06.09.2009 06:20 4,6 C 5,3 C 6,2 C 92 % 1025 hPa 0,0 l/m 0,0 m/s (0 Bft) W-SW 240 0 min 0 lux 3,4 C 4,6 C
06.09.2009 06:25 4,5 C 5,3 C 6,1 C 92 % 1025 hPa 0,0 l/m 0,0 m/s (0 Bft) W-SW 240 0 min 0 lux 3,3 C 4,5 C
06.09.2009 06:30 4,5 C 5,3 C 6,1 C 92 % 1025 hPa 0,0 l/m 0,0 m/s (0 Bft) W-SW 240 0 min 49 lux 3,3 C 4,5 C
06.09.2009 06:35 4,6 C 5,3 C 6,0 C 92 % 1025 hPa 0,0 l/m 0,0 m/s (0 Bft) W-SW 240 0 min 65 lux 3,4 C 4,6 C
06.09.2009 06:40 4,7 C 5,4 C 6,2 C 93 % 1025 hPa 0,0 l/m 0,0 m/s (0 Bft) W-SW 240 0 min 152 lux 3,7 C 4,7 C
06.09.2009 06:45 4,9 C 5,5 C 6,2 C 93 % 1025 hPa 0,0 l/m 0,0 m/s (0 Bft) W-SW 240 0 min 257 lux 3,9 C 4,9 C
06.09.2009 06:50 4,9 C 5,6 C 6,3 C 93 % 1025 hPa 0,0 l/m 0,0 m/s (0 Bft) W-SW 240 0 min 379 lux 3,9 C 4,9 C
06.09.2009 06:55 4,9 C 5,6 C 6,4 C 93 % 1025 hPa 0,0 l/m 0,0 m/s (0 Bft) W-SW 240 0 min 416 lux 3,9 C 4,9 C
06.09.2009 07:00 5,2 C 5,7 C 6,3 C 93 % 1025 hPa 0,0 l/m 0,0 m/s (0 Bft) W-SW 240 0 min 426 lux 4,2 C 5,2 C
06.09.2009 07:05 5,2 C 5,8 C 6,5 C 93 % 1025 hPa 0,0 l/m 0,0 m/s (0 Bft) W-SW 240 0 min 797 lux 4,2 C 5,2 C
06.09.2009 07:10 5,5 C 5,9 C 6,7 C 93 % 1025 hPa 0,0 l/m 0,0 m/s (0 Bft) W-SW 240 0 min 797 lux 4,5 C 5,5 C
06.09.2009 07:15 5,6 C 6,0 C 6,7 C 93 % 1025 hPa 0,0 l/m 0,0 m/s (0 Bft) W-SW 240 0 min 1,36 klux 4,6 C 5,6 C
06.09.2009 07:20 5,7 C 6,0 C 6,7 C 93 % 1025 hPa 0,0 l/m 0,0 m/s (0 Bft) W-SW 240 0 min 1,44 klux 4,7 C 5,7 C
06.09.2009 07:25 5,8 C 6,1 C 6,5 C 93 % 1025 hPa 0,0 l/m 0,0 m/s (0 Bft) W-SW 240 0 min 1,79 klux 4,8 C 5,8 C
06.09.2009 07:30 5,8 C 6,1 C 6,8 C 92 % 1025 hPa 0,0 l/m 0,0 m/s (0 Bft) W-SW 240 0 min 2,06 klux 4,6 C 5,8 C
06.09.2009 07:35 6,0 C 6,3 C 6,9 C 93 % 1025 hPa 0,0 l/m 0,0 m/s (0 Bft) W-SW 240 0 min 2,53 klux 5,0 C 6,0 C
06.09.2009 07:40 6,0 C 6,4 C 7,0 C 93 % 1025 hPa 0,0 l/m 0,0 m/s (0 Bft) W-SW 240 0 min 2,82 klux 5,0 C 6,0 C
06.09.2009 07:45 6,2 C 6,5 C 7,1 C 93 % 1025 hPa 0,0 l/m 0,0 m/s (0 Bft) W-SW 240 0 min 3,52 klux 5,2 C 6,2 C
06.09.2009 07:50 6,4 C 6,6 C 7,2 C 93 % 1025 hPa 0,0 l/m 0,0 m/s (0 Bft) W-SW 240 0 min 3,34 klux 5,4 C 6,4 C
06.09.2009 07:55 6,5 C 6,7 C 7,2 C 92 % 1025 hPa 0,0 l/m 0,0 m/s (0 Bft) W-SW 240 0 min 4,21 klux 5,3 C 6,5 C
06.09.2009 08:00 6,6 C 6,7 C 7,2 C 92 % 1025 hPa 0,0 l/m 0,0 m/s (0 Bft) W-SW 240 0 min 5,25 klux 5,4 C 6,6 C
06.09.2009 08:05 6,8 C 6,9 C 7,4 C 92 % 1025 hPa 0,0 l/m 0,0 m/s (0 Bft) W-SW 240 0 min 5,09 klux 5,6 C 6,8 C
06.09.2009 08:10 6,8 C 7,0 C 7,4 C 92 % 1025 hPa 0,0 l/m 0,0 m/s (0 Bft) W-SW 240 0 min 5,15 klux 5,6 C 6,8 C
06.09.2009 08:15 6,9 C 7,2 C 7,4 C 92 % 1025 hPa 0,0 l/m 0,0 m/s (0 Bft) W-SW 240 0 min 9,0 klux 5,7 C 6,9 C
06.09.2009 08:20 7,0 C 7,3 C 7,7 C 92 % 1025 hPa 0,0 l/m 0,0 m/s (0 Bft) W-SW 240 0 min 12,1 klux 5,8 C 7,0 C
06.09.2009 08:26 7,1 C 7,4 C 7,8 C 92 % 1025 hPa 0,0 l/m 0,0 m/s (0 Bft) W-SW 240 6 min 20,0 klux 5,9 C 7,1 C
06.09.2009 08:30 7,2 C 7,6 C 7,8 C 92 % 1025 hPa 0,0 l/m 0,0 m/s (0 Bft) W-SW 240 0 min 14,9 klux 6,0 C 7,2 C
06.09.2009 08:35 7,6 C 7,7 C 8,1 C 92 % 1025 hPa 0,0 l/m 0,0 m/s (0 Bft) W-SW 240 0 min 15,3 klux 6,4 C 7,6 C
06.09.2009 08:40 8,0 C 7,9 C 8,2 C 92 % 1025 hPa 0,0 l/m 0,0 m/s (0 Bft) W-SW 240 0 min 15,4 klux 6,8 C 8,0 C
06.09.2009 08:45 8,0 C 8,1 C 8,3 C 92 % 1025 hPa 0,0 l/m 0,0 m/s (0 Bft) W-SW 240 0 min 12,5 klux 6,8 C 8,0 C
06.09.2009 08:50 8,4 C 8,2 C 8,4 C 91 % 1025 hPa 0,0 l/m 0,0 m/s (0 Bft) W-SW 240 0 min 11,4 klux 7,0 C 8,4 C
06.09.2009 08:55 8,4 C 8,3 C 8,5 C 91 % 1025 hPa 0,0 l/m 0,0 m/s (0 Bft) W-SW 240 0 min 11,9 klux 7,0 C 8,4 C
06.09.2009 09:00 8,6 C 8,5 C 8,6 C 91 % 1025 hPa 0,0 l/m 0,0 m/s (0 Bft) W-SW 240 0 min 12,2 klux 7,2 C 8,6 C
06.09.2009 09:05 8,7 C 8,6 C 8,6 C 90 % 1025 hPa 0,0 l/m 0,0 m/s (0 Bft) W-SW 240 0 min 12,4 klux 7,2 C 8,7 C
06.09.2009 09:10 8,8 C 8,7 C 8,8 C 90 % 1025 hPa 0,0 l/m 0,0 m/s (0 Bft) W-SW 240 0 min 11,5 klux 7,3 C 8,8 C
06.09.2009 09:15 9,0 C 8,9 C 9,1 C 90 % 1025 hPa 0,0 l/m 0,0 m/s (0 Bft) W-SW 240 0 min 17,0 klux 7,4 C 9,0 C
06.09.2009 09:20 9,2 C 9,1 C 9,3 C 90 % 1025 hPa 0,0 l/m 0,0 m/s (0 Bft) W-SW 240 0 min 17,1 klux 7,6 C 9,2 C
06.09.2009 09:25 9,6 C 9,3 C 9,4 C 90 % 1025 hPa 0,0 l/m 0,0 m/s (0 Bft) W-SW 240 0 min 23,1 klux 8,0 C 9,6 C
06.09.2009 09:30 10,2 C 9,6 C 9,7 C 89 % 1025 hPa 0,0 l/m 0,0 m/s (0 Bft) W-SW 240 5 min 54,9 klux 8,5 C 10,2 C
06.09.2009 09:35 10,5 C 9,8 C 10,0 C 88 % 1025 hPa 0,0 l/m 0,0 m/s (0 Bft) NW 305 5 min 59,2 klux 8,6 C 10,5 C
06.09.2009 09:40 11,2 C 10,3 C 10,3 C 87 % 1025 hPa 0,0 l/m 0,0 m/s (0 Bft) NW 305 5 min 63,0 klux 9,1 C 11,2 C
06.09.2009 09:45 11,4 C 10,4 C 10,5 C 86 % 1025 hPa 0,0 l/m 0,0 m/s (0 Bft) NW 305 5 min 41,1 klux 9,1 C 11,4 C
06.09.2009 09:50 11,5 C 10,7 C 10,6 C 86 % 1025 hPa 0,0 l/m 0,0 m/s (0 Bft) NW 305 0 min 30,2 klux 9,2 C 11,5 C
06.09.2009 09:55 11,6 C 10,9 C 10,8 C 85 % 1025 hPa 0,0 l/m 0,0 m/s (0 Bft) NW 305 5 min 38,1 klux 9,2 C 11,6 C
06.09.2009 10:00 11,7 C 11,0 C 11,0 C 84 % 1025 hPa 0,0 l/m 0,0 m/s (0 Bft) NW 305 0 min 33,8 klux 9,1 C 11,7 C
06.09.2009 10:05 11,8 C 11,2 C 11,0 C 84 % 1025 hPa 0,0 l/m 0,0 m/s (0 Bft) NW 305 0 min 31,7 klux 9,2 C 11,8 C
06.09.2009 10:10 11,7 C 11,3 C 11,2 C 84 % 1025 hPa 0,0 l/m 0,0 m/s (0 Bft) NW 305 0 min 23,4 klux 9,1 C 11,7 C
06.09.2009 10:15 11,6 C 11,4 C 11,2 C 84 % 1026 hPa 0,0 l/m 0,0 m/s (0 Bft) NW 305 0 min 34,3 klux 9,0 C 11,6 C
06.09.2009 10:20 11,6 C 11,5 C 11,4 C 84 % 1026 hPa 0,0 l/m 0,0 m/s (0 Bft) NW 305 5 min 63,7 klux 9,0 C 11,6 C
06.09.2009 10:25 12,0 C 11,7 C 11,6 C 84 % 1026 hPa 0,0 l/m 0,0 m/s (0 Bft) NW 305 5 min 64,4 klux 9,4 C 12,0 C
06.09.2009 10:30 12,5 C 11,9 C 11,9 C 83 % 1026 hPa 0,0 l/m 0,0 m/s (0 Bft) NW 305 5 min 64,2 klux 9,7 C 12,5 C
06.09.2009 10:35 12,9 C 12,1 C 11,9 C 83 % 1026 hPa 0,0 l/m 0,2 m/s (0 Bft) S 175 5 min 64,9 klux 10,1 C 12,9 C
06.09.2009 10:40 13,0 C 12,4 C 12,1 C 81 % 1026 hPa 0,0 l/m 0,3 m/s (0 Bft) S 175 5 min 65,7 klux 9,8 C 13,0 C
06.09.2009 10:45 13,4 C 12,8 C 12,4 C 79 % 1026 hPa 0,0 l/m 1,1 m/s (1 Bft) O-SO45 115 5 min 66,4 klux 9,8 C 13,4 C
06.09.2009 10:50 13,8 C 14,3 C 12,3 C 78 % 1025 hPa 0,0 l/m 1,3 m/s (1 Bft) SO22.5 125 5 min 67,7 klux 10,0 C 13,8 C
06.09.2009 10:55 14,0 C 16,0 C 12,6 C 77 % 1025 hPa 0,0 l/m 1,5 m/s (1 Bft) SO22.5 125 5 min 68,4 klux 10,0 C 14,0 C
06.09.2009 11:00 14,3 C 17,3 C 13,1 C 78 % 1025 hPa 0,0 l/m 0,2 m/s (0 Bft) O-SO 115 5 min 69,3 klux 10,5 C 14,3 C
06.09.2009 11:05 14,4 C 18,2 C 13,5 C 77 % 1025 hPa 0,0 l/m 2,3 m/s (2 Bft) S22.5 175 5 min 70,5 klux 10,4 C 13,4 C
06.09.2009 11:10 14,8 C 18,7 C 13,8 C 75 % 1025 hPa 0,0 l/m 2,1 m/s (2 Bft) SW22.5 235 5 min 71,4 klux 10,4 C 14,1 C
06.09.2009 11:15 14,8 C 19,6 C 14,3 C 74 % 1025 hPa 0,0 l/m 1,8 m/s (2 Bft) W-SW22.5 240 5 min 72,0 klux 10,2 C 14,8 C
06.09.2009 11:20 15,0 C 20,3 C 14,9 C 74 % 1025 hPa 0,0 l/m 0,1 m/s (0 Bft) SW22.5 230 5 min 73,4 klux 10,4 C 15,0 C
06.09.2009 11:25 15,2 C 20,6 C 15,0 C 75 % 1025 hPa 0,0 l/m 0,4 m/s (1 Bft) SO45 145 5 min 75,4 klux 10,8 C 15,2 C
06.09.2009 11:30 15,7 C 21,0 C 15,7 C 73 % 1025 hPa 0,0 l/m 3,0 m/s (2 Bft) SW67.5 220 5 min 78,6 klux 10,9 C 13,6 C
06.09.2009 11:35 16,2 C 21,5 C 16,5 C 67 % 1025 hPa 0,0 l/m 2,3 m/s (2 Bft) S45 190 5 min 77,6 klux 10,1 C 15,2 C
06.09.2009 11:40 16,4 C 21,8 C 17,1 C 68 % 1025 hPa 0,0 l/m 3,8 m/s (3 Bft) W45 265 5 min 83,6 klux 10,5 C 13,3 C
06.09.2009 11:45 16,6 C 22,0 C 17,2 C 67 % 1025 hPa 0,0 l/m 3,6 m/s (3 Bft) S-SW67.5 210 5 min 90,0 klux 10,4 C 13,8 C
06.09.2009 11:50 16,9 C 22,4 C 18,2 C 68 % 1025 hPa 0,0 l/m 2,3 m/s (2 Bft) S67.5 190 5 min 95,1 klux 11,0 C 16,0 C
06.09.2009 11:55 17,4 C 22,7 C 18,1 C 67 % 1025 hPa 0,0 l/m 2,4 m/s (2 Bft) S45 185 0 min 47,2 klux 11,2 C 16,3 C
06.09.2009 12:00 17,4 C 22,2 C 17,8 C 66 % 1025 hPa 0,0 l/m 2,9 m/s (2 Bft) S45 170 0 min 34,2 klux 11,0 C 15,7 C
06.09.2009 12:05 17,1 C 21,3 C 18,0 C 65 % 1025 hPa 0,0 l/m 1,9 m/s (2 Bft) SW67.5 230 0 min 30,8 klux 10,5 C 16,8 C
06.09.2009 12:10 16,8 C 20,7 C 17,9 C 67 % 1025 hPa 0,0 l/m 2,6 m/s (2 Bft) S-SO22.5 160 0 min 39,5 klux 10,6 C 15,4 C
06.09.2009 12:15 16,9 C 20,7 C 18,2 C 68 % 1025 hPa 0,0 l/m 1,5 m/s (1 Bft) S67.5 170 0 min 45,6 klux 11,0 C 16,9 C
06.09.2009 12:20 17,0 C 20,2 C 17,8 C 64 % 1025 hPa 0,0 l/m 4,3 m/s (3 Bft) W45 275 0 min 34,0 klux 10,1 C 13,4 C
06.09.2009 12:25 16,6 C 19,6 C 17,8 C 59 % 1025 hPa 0,0 l/m 4,3 m/s (3 Bft) W45 280 0 min 31,0 klux 8,6 C 13,0 C
06.09.2009 12:30 16,8 C 19,3 C 18,1 C 60 % 1025 hPa 0,0 l/m 5,4 m/s (3 Bft) W-SW45 250 0 min 54,1 klux 9,0 C 12,2 C
06.09.2009 12:35 17,0 C 20,0 C 18,1 C 60 % 1025 hPa 0,0 l/m 4,1 m/s (3 Bft) W45 260 5 min 89,2 klux 9,2 C 13,7 C
06.09.2009 12:40 17,8 C 21,3 C 19,3 C 57 % 1025 hPa 0,0 l/m 4,1 m/s (3 Bft) SW45 225 5 min 93,2 klux 9,2 C 14,7 C
06.09.2009 12:45 18,0 C 21,5 C 19,4 C 55 % 1025 hPa 0,0 l/m 5,2 m/s (3 Bft) W67.5 260 0 min 42,5 klux 8,8 C 13,9 C
06.09.2009 12:50 17,7 C 21,5 C 18,8 C 54 % 1025 hPa 0,0 l/m 3,8 m/s (3 Bft) W45 265 0 min 31,1 klux 8,3 C 14,8 C
06.09.2009 12:55 17,5 C 20,3 C 18,8 C 57 % 1025 hPa 0,0 l/m 4,1 m/s (3 Bft) W67.5 270 0 min 30,3 klux 8,9 C 14,3 C
06.09.2009 13:00 16,8 C 19,6 C 18,8 C 58 % 1025 hPa 0,0 l/m 5,4 m/s (3 Bft) W45 260 0 min 27,4 klux 8,5 C 12,2 C
06.09.2009 13:05 17,0 C 19,4 C 18,6 C 58 % 1025 hPa 0,0 l/m 3,8 m/s (3 Bft) SW67.5 225 0 min 33,6 klux 8,7 C 14,0 C
06.09.2009 13:10 17,1 C 19,2 C 18,8 C 58 % 1025 hPa 0,0 l/m 3,3 m/s (2 Bft) SW67.5 215 0 min 35,8 klux 8,8 C 14,7 C
06.09.2009 13:15 17,2 C 19,1 C 18,8 C 57 % 1025 hPa 0,0 l/m 4,5 m/s (3 Bft) W-SW67.5 240 0 min 40,1 klux 8,6 C 13,5 C
06.09.2009 13:20 17,2 C 19,1 C 18,9 C 57 % 1025 hPa 0,0 l/m 3,0 m/s (2 Bft) W-SW67.5 245 0 min 22,2 klux 8,6 C 15,2 C
06.09.2009 13:25 17,1 C 19,1 C 18,4 C 57 % 1025 hPa 0,0 l/m 4,2 m/s (3 Bft) SW67.5 235 0 min 19,9 klux 8,5 C 13,7 C
06.09.2009 13:30 16,8 C 18,6 C 18,0 C 56 % 1025 hPa 0,0 l/m 4,6 m/s (3 Bft) W45 270 0 min 20,0 klux 8,0 C 13,0 C
06.09.2009 13:35 16,6 C 18,3 C 17,9 C 58 % 1025 hPa 0,0 l/m 3,7 m/s (3 Bft) W45 280 0 min 17,3 klux 8,3 C 13,6 C
06.09.2009 13:40 16,5 C 18,2 C 17,9 C 57 % 1025 hPa 0,0 l/m 3,1 m/s (2 Bft) W-NW22.5 285 0 min 16,3 klux 8,0 C 14,3 C
06.09.2009 13:45 16,4 C 18,0 C 17,7 C 58 % 1025 hPa 0,0 l/m 3,5 m/s (3 Bft) W45 280 0 min 12,0 klux 8,1 C 13,6 C
06.09.2009 13:50 16,2 C 17,8 C 17,7 C 58 % 1025 hPa 0,0 l/m 4,6 m/s (3 Bft) W45 265 0 min 13,1 klux 7,9 C 12,2 C
06.09.2009 13:55 16,2 C 17,7 C 17,3 C 58 % 1025 hPa 0,0 l/m 3,9 m/s (3 Bft) W45 275 0 min 17,9 klux 7,9 C 12,9 C
06.09.2009 14:00 16,3 C 17,6 C 17,5 C 58 % 1025 hPa 0,0 l/m 3,5 m/s (3 Bft) W22.5 275 0 min 20,9 klux 8,0 C 13,6 C
06.09.2009 14:05 16,5 C 17,5 C 17,6 C 58 % 1025 hPa 0,0 l/m 3,1 m/s (2 Bft) W45 270 0 min 22,3 klux 8,2 C 14,4 C
06.09.2009 14:10 16,6 C 17,5 C 17,5 C 59 % 1025 hPa 0,0 l/m 3,3 m/s (2 Bft) W45 275 0 min 19,7 klux 8,6 C 14,2 C
06.09.2009 14:15 16,7 C 17,5 C 17,6 C 59 % 1025 hPa 0,0 l/m 2,0 m/s (2 Bft) W45 265 0 min 22,5 klux 8,6 C 16,3 C
06.09.2009 14:20 16,8 C 17,6 C 17,6 C 58 % 1025 hPa 0,0 l/m 2,4 m/s (2 Bft) W22.5 265 0 min 31,7 klux 8,5 C 15,6 C
06.09.2009 14:25 17,0 C 17,8 C 17,8 C 57 % 1025 hPa 0,0 l/m 3,3 m/s (2 Bft) W45 270 0 min 33,7 klux 8,4 C 14,6 C
06.09.2009 14:30 17,3 C 17,9 C 18,1 C 58 % 1025 hPa 0,0 l/m 3,8 m/s (3 Bft) W45 275 5 min 98,0 klux 9,0 C 14,3 C
06.09.2009 14:30 17,3 C 17,9 C 18,1 C 58 % 1025 hPa 0,0 l/m 3,8 m/s (3 Bft) W45 275 0 min 98,0 klux 9,0 C 14,3 C
06.09.2009 14:35 18,2 C 19,1 C 18,5 C 56 % 1025 hPa 0,0 l/m 3,2 m/s (2 Bft) W-NW45 285 5 min 114 klux 9,3 C 16,1 C
06.09.2009 14:40 18,3 C 20,1 C 18,4 C 55 % 1025 hPa 0,0 l/m 3,3 m/s (2 Bft) W45 260 0 min 45,9 klux 9,1 C 16,1 C
06.09.2009 14:45 18,0 C 19,9 C 18,0 C 56 % 1025 hPa 0,0 l/m 4,6 m/s (3 Bft) W45 275 0 min 29,5 klux 9,1 C 14,4 C
06.09.2009 14:50 17,5 C 19,5 C 17,8 C 57 % 1025 hPa 0,0 l/m 3,3 m/s (2 Bft) W-SW67.5 250 0 min 18,3 klux 8,9 C 15,2 C
06.09.2009 14:55 17,2 C 19,1 C 17,8 C 58 % 1025 hPa 0,0 l/m 4,4 m/s (3 Bft) W45 265 0 min 15,1 klux 8,9 C 13,7 C
06.09.2009 15:00 17,0 C 18,8 C 17,7 C 58 % 1025 hPa 0,0 l/m 2,5 m/s (2 Bft) W-SW45 240 0 min 20,4 klux 8,7 C 15,8 C
06.09.2009 15:05 17,0 C 18,7 C 18,0 C 59 % 1025 hPa 0,0 l/m 1,6 m/s (1 Bft) SW45 215 0 min 22,8 klux 8,9 C 17,0 C
06.09.2009 15:10 17,4 C 18,6 C 18,0 C 59 % 1025 hPa 0,0 l/m 0,2 m/s (0 Bft) S-SW22.5 205 0 min 22,7 klux 9,3 C 17,4 C
06.09.2009 15:15 17,5 C 18,5 C 17,9 C 57 % 1025 hPa 0,0 l/m 2,5 m/s (2 Bft) SW22.5 220 0 min 23,3 klux 8,9 C 16,3 C
06.09.2009 15:20 17,4 C 18,5 C 17,9 C 58 % 1025 hPa 0,0 l/m 1,1 m/s (1 Bft) W-SW45 245 0 min 20,9 klux 9,1 C 17,4 C
06.09.2009 15:25 17,5 C 18,5 C 17,9 C 59 % 1025 hPa 0,0 l/m 1,4 m/s (1 Bft) S-SW67.5 205 0 min 23,1 klux 9,4 C 17,5 C
06.09.2009 15:30 17,7 C 18,5 C 17,9 C 57 % 1025 hPa 0,0 l/m 2,2 m/s (2 Bft) SW45 215 0 min 26,4 klux 9,1 C 17,0 C
06.09.2009 15:35 17,8 C 18,6 C 18,0 C 58 % 1025 hPa 0,0 l/m 1,2 m/s (1 Bft) S-SO45 160 0 min 29,1 klux 9,4 C 17,8 C
06.09.2009 15:40 17,9 C 18,6 C 18,1 C 57 % 1025 hPa 0,0 l/m 2,2 m/s (2 Bft) W-SW22.5 250 0 min 31,2 klux 9,3 C 17,2 C
06.09.2009 15:45 18,0 C 18,7 C 18,2 C 57 % 1024 hPa 0,0 l/m 1,8 m/s (2 Bft) SW67.5 215 0 min 34,5 klux 9,4 C 18,0 C
06.09.2009 15:50 18,2 C 19,0 C 18,2 C 58 % 1024 hPa 0,0 l/m 1,3 m/s (1 Bft) S45 180 0 min 34,4 klux 9,8 C 18,2 C
06.09.2009 15:55 18,3 C 19,1 C 18,2 C 57 % 1024 hPa 0,0 l/m 1,4 m/s (1 Bft) S-SW45 200 0 min 32,4 klux 9,6 C 18,3 C
06.09.2009 16:00 18,2 C 19,3 C 17,9 C 57 % 1024 hPa 0,0 l/m 2,9 m/s (2 Bft) S67.5 185 0 min 28,0 klux 9,5 C 16,5 C
06.09.2009 16:05 18,2 C 19,3 C 17,9 C 57 % 1024 hPa 0,0 l/m 1,9 m/s (2 Bft) S45 180 0 min 21,9 klux 9,5 C 18,0 C
06.09.2009 16:10 18,0 C 19,4 C 18,0 C 57 % 1024 hPa 0,0 l/m 0,2 m/s (0 Bft) SW45 220 0 min 26,2 klux 9,4 C 18,0 C
06.09.2009 16:15 18,0 C 19,4 C 18,0 C 56 % 1024 hPa 0,0 l/m 2,5 m/s (2 Bft) SW45 235 0 min 28,9 klux 9,1 C 16,9 C
06.09.2009 16:20 18,1 C 19,5 C 18,1 C 57 % 1024 hPa 0,0 l/m 1,6 m/s (2 Bft) SW67.5 220 0 min 34,2 klux 9,4 C 18,1 C
06.09.2009 16:25 18,1 C 19,6 C 17,9 C 56 % 1024 hPa 0,0 l/m 2,6 m/s (2 Bft) S-SW67.5 195 0 min 29,5 klux 9,2 C 16,7 C
06.09.2009 16:30 18,2 C 19,4 C 18,0 C 57 % 1024 hPa 0,0 l/m 1,6 m/s (1 Bft) S-SW45 205 0 min 26,3 klux 9,5 C 18,2 C
06.09.2009 16:35 18,1 C 19,3 C 17,8 C 57 % 1024 hPa 0,0 l/m 2,7 m/s (2 Bft) S-SW45 205 0 min 20,3 klux 9,4 C 16,7 C
06.09.2009 16:40 18,1 C 19,2 C 17,8 C 57 % 1024 hPa 0,0 l/m 2,7 m/s (2 Bft) S-SW67.5 205 0 min 20,8 klux 9,4 C 16,6 C
06.09.2009 16:45 18,0 C 19,2 C 17,9 C 57 % 1024 hPa 0,0 l/m 2,9 m/s (2 Bft) SW67.5 225 0 min 27,7 klux 9,4 C 16,3 C
06.09.2009 16:50 18,0 C 19,3 C 17,9 C 57 % 1024 hPa 0,0 l/m 3,2 m/s (2 Bft) SW67.5 225 0 min 23,0 klux 9,4 C 15,9 C
06.09.2009 16:55 18,0 C 19,3 C 17,8 C 58 % 1024 hPa 0,0 l/m 2,2 m/s (2 Bft) S-SW45 205 0 min 20,7 klux 9,6 C 17,3 C
06.09.2009 17:00 17,9 C 19,3 C 17,8 C 58 % 1024 hPa 0,0 l/m 1,9 m/s (2 Bft) S45 185 0 min 20,9 klux 9,5 C 17,7 C
06.09.2009 17:05 17,9 C 19,3 C 17,8 C 57 % 1024 hPa 0,0 l/m 2,2 m/s (2 Bft) S-SW45 205 0 min 20,1 klux 9,3 C 17,2 C
06.09.2009 17:10 17,9 C 19,2 C 17,7 C 57 % 1024 hPa 0,0 l/m 3,3 m/s (2 Bft) W22.5 260 0 min 18,6 klux 9,3 C 15,7 C
06.09.2009 17:15 17,7 C 19,1 C 17,8 C 58 % 1024 hPa 0,0 l/m 1,6 m/s (1 Bft) W22.5 260 0 min 19,5 klux 9,3 C 17,7 C
06.09.2009 17:20 17,7 C 19,1 C 17,8 C 58 % 1024 hPa 0,0 l/m 2,3 m/s (2 Bft) W-SW45 255 0 min 20,4 klux 9,3 C 16,8 C
06.09.2009 17:25 18,0 C 19,1 C 17,8 C 58 % 1024 hPa 0,0 l/m 1,5 m/s (1 Bft) S-SO45 165 0 min 21,8 klux 9,6 C 18,0 C
06.09.2009 17:30 18,0 C 19,6 C 17,8 C 57 % 1024 hPa 0,0 l/m 2,1 m/s (2 Bft) SW67.5 230 5 min 48,9 klux 9,4 C 17,5 C
06.09.2009 17:35 18,4 C 19,6 C 17,9 C 58 % 1024 hPa 0,0 l/m 2,5 m/s (2 Bft) S-SW67.5 205 5 min 48,7 klux 10,0 C 17,3 C
06.09.2009 17:40 18,4 C 21,0 C 17,5 C 57 % 1024 hPa 0,0 l/m 2,5 m/s (2 Bft) S-SW67.5 205 0 min 18,8 klux 9,7 C 17,3 C
06.09.2009 17:45 18,4 C 20,6 C 17,6 C 57 % 1024 hPa 0,0 l/m 2,7 m/s (2 Bft) W-SW67.5 250 0 min 17,9 klux 9,7 C 17,0 C
06.09.2009 17:50 18,0 C 20,7 C 17,5 C 58 % 1024 hPa 0,0 l/m 0,5 m/s (1 Bft) S-SW67.5 210 5 min 35,3 klux 9,6 C 18,0 C
06.09.2009 17:55 18,0 C 20,8 C 17,7 C 57 % 1024 hPa 0,0 l/m 1,8 m/s (2 Bft) SW67.5 230 0 min 21,4 klux 9,4 C 18,0 C
06.09.2009 18:00 18,0 C 20,7 C 17,7 C 59 % 1024 hPa 0,0 l/m 1,4 m/s (1 Bft) W-SW45 255 0 min 19,6 klux 9,9 C 18,0 C
06.09.2009 18:05 18,0 C 20,5 C 17,5 C 59 % 1024 hPa 0,0 l/m 1,7 m/s (2 Bft) S-SW67.5 205 0 min 18,1 klux 9,9 C 18,0 C
06.09.2009 18:10 18,0 C 20,2 C 17,2 C 58 % 1024 hPa 0,0 l/m 3,3 m/s (2 Bft) S45 170 0 min 16,6 klux 9,6 C 15,8 C
06.09.2009 18:15 17,8 C 19,9 C 17,5 C 59 % 1024 hPa 0,0 l/m 1,8 m/s (2 Bft) SW45 220 0 min 15,7 klux 9,7 C 17,8 C
06.09.2009 18:20 17,6 C 19,6 C 17,3 C 60 % 1024 hPa 0,0 l/m 2,4 m/s (2 Bft) S67.5 190 0 min 12,8 klux 9,7 C 16,6 C
06.09.2009 18:25 17,3 C 19,4 C 17,3 C 61 % 1024 hPa 0,0 l/m 0,3 m/s (1 Bft) S45 190 0 min 11,1 klux 9,7 C 17,3 C
06.09.2009 18:30 17,2 C 19,1 C 17,1 C 62 % 1024 hPa 0,0 l/m 0,0 m/s (0 Bft) S45 180 0 min 9,0 klux 9,9 C 17,2 C
06.09.2009 18:35 17,1 C 18,8 C 16,8 C 61 % 1024 hPa 0,0 l/m 0,3 m/s (0 Bft) S45 190 0 min 6,99 klux 9,5 C 17,1 C
06.09.2009 18:40 16,9 C 18,6 C 17,0 C 62 % 1024 hPa 0,0 l/m 1,6 m/s (1 Bft) SW45 235 0 min 6,35 klux 9,6 C 16,9 C
06.09.2009 18:45 16,8 C 18,4 C 16,9 C 63 % 1024 hPa 0,0 l/m 0,0 m/s (0 Bft) SW 215 0 min 5,57 klux 9,7 C 16,8 C
06.09.2009 18:50 16,7 C 18,2 C 16,9 C 63 % 1024 hPa 0,0 l/m 0,0 m/s (0 Bft) SW 215 0 min 4,92 klux 9,6 C 16,7 C
06.09.2009 18:55 16,6 C 18,1 C 16,7 C 64 % 1024 hPa 0,0 l/m 0,0 m/s (0 Bft) SW 215 0 min 4,27 klux 9,8 C 16,6 C
06.09.2009 19:00 16,5 C 18,0 C 16,7 C 64 % 1024 hPa 0,0 l/m 0,1 m/s (0 Bft) S-SW22.5 195 0 min 4,26 klux 9,7 C 16,5 C
06.09.2009 19:05 16,4 C 17,8 C 16,7 C 65 % 1024 hPa 0,0 l/m 0,0 m/s (0 Bft) S22.5 190 0 min 4,36 klux 9,8 C 16,4 C
06.09.2009 19:10 16,4 C 17,7 C 16,6 C 65 % 1024 hPa 0,0 l/m 0,0 m/s (0 Bft) S22.5 190 0 min 4,48 klux 9,8 C 16,4 C
06.09.2009 19:15 16,2 C 17,5 C 16,5 C 66 % 1024 hPa 0,0 l/m 0,1 m/s (0 Bft) S22.5 190 0 min 4,66 klux 9,8 C 16,2 C
06.09.2009 19:20 16,2 C 17,5 C 16,4 C 66 % 1024 hPa 0,0 l/m 0,0 m/s (0 Bft) S 180 0 min 3,17 klux 9,8 C 16,2 C
06.09.2009 19:25 16,0 C 17,2 C 16,0 C 66 % 1024 hPa 0,0 l/m 0,0 m/s (0 Bft) S 180 0 min 2,44 klux 9,7 C 16,0 C
06.09.2009 19:30 15,8 C 17,1 C 15,9 C 67 % 1024 hPa 0,0 l/m 0,0 m/s (0 Bft) S 180 0 min 2,18 klux 9,7 C 15,8 C
06.09.2009 19:35 15,6 C 17,0 C 15,8 C 67 % 1024 hPa 0,0 l/m 0,0 m/s (0 Bft) S 180 0 min 1,72 klux 9,5 C 15,6 C
06.09.2009 19:40 15,6 C 16,9 C 16,0 C 68 % 1024 hPa 0,0 l/m 0,0 m/s (0 Bft) S 180 0 min 1,43 klux 9,7 C 15,6 C
06.09.2009 19:45 15,5 C 16,7 C 15,8 C 69 % 1024 hPa 0,0 l/m 0,0 m/s (0 Bft) S 180 0 min 1,39 klux 9,8 C 15,5 C
06.09.2009 19:50 15,3 C 16,6 C 15,6 C 69 % 1024 hPa 0,0 l/m 0,0 m/s (0 Bft) S 180 0 min 1,16 klux 9,6 C 15,3 C
06.09.2009 19:55 15,2 C 16,3 C 15,6 C 70 % 1024 hPa 0,0 l/m 0,0 m/s (0 Bft) S 180 0 min 775 lux 9,8 C 15,2 C
06.09.2009 20:00 15,0 C 15,9 C 15,2 C 70 % 1024 hPa 0,0 l/m 0,0 m/s (0 Bft) S 180 0 min 483 lux 9,6 C 15,0 C
06.09.2009 20:05 14,5 C 15,6 C 15,0 C 71 % 1024 hPa 0,0 l/m 0,0 m/s (0 Bft) S 180 0 min 315 lux 9,3 C 14,5 C
06.09.2009 20:10 14,5 C 15,5 C 14,7 C 71 % 1024 hPa 0,0 l/m 0,0 m/s (0 Bft) S 180 0 min 182 lux 9,3 C 14,5 C
06.09.2009 20:15 14,0 C 15,2 C 14,6 C 72 % 1024 hPa 0,0 l/m 0,0 m/s (0 Bft) S 180 0 min 89 lux 9,0 C 14,0 C
06.09.2009 20:20 13,6 C 14,9 C 14,1 C 73 % 1024 hPa 0,0 l/m 0,0 m/s (0 Bft) S 180 0 min 43 lux 8,9 C 13,6 C
06.09.2009 20:25 13,2 C 14,7 C 14,3 C 74 % 1024 hPa 0,0 l/m 0,0 m/s (0 Bft) S 180 0 min 30 lux 8,7 C 13,2 C
06.09.2009 20:30 13,1 C 14,5 C 13,9 C 74 % 1024 hPa 0,0 l/m 0,0 m/s (0 Bft) S 180 0 min 14 lux 8,6 C 13,1 C
06.09.2009 20:35 12,8 C 14,2 C 13,8 C 75 % 1024 hPa 0,0 l/m 0,0 m/s (0 Bft) S 180 0 min 9 lux 8,5 C 12,8 C
06.09.2009 20:40 12,6 C 13,9 C 13,9 C 76 % 1024 hPa 0,0 l/m 0,0 m/s (0 Bft) S 180 0 min 4 lux 8,5 C 12,6 C
06.09.2009 20:45 12,4 C 13,8 C 13,4 C 75 % 1024 hPa 0,0 l/m 0,0 m/s (0 Bft) S 180 0 min 1 lux 8,1 C 12,4 C
06.09.2009 20:50 12,3 C 13,6 C 13,4 C 76 % 1024 hPa 0,0 l/m 0,0 m/s (0 Bft) S 180 0 min 0 lux 8,2 C 12,3 C
06.09.2009 20:55 12,1 C 13,4 C 13,4 C 77 % 1024 hPa 0,0 l/m 0,0 m/s (0 Bft) S 180 0 min 0 lux 8,2 C 12,1 C
06.09.2009 21:00 12,0 C 13,3 C 13,3 C 77 % 1024 hPa 0,0 l/m 0,0 m/s (0 Bft) S 180 0 min 0 lux 8,1 C 12,0 C
06.09.2009 21:05 11,8 C 13,0 C 12,8 C 78 % 1024 hPa 0,0 l/m 0,0 m/s (0 Bft) S 180 0 min 0 lux 8,1 C 11,8 C
06.09.2009 21:10 11,6 C 12,8 C 12,8 C 78 % 1024 hPa 0,0 l/m 0,0 m/s (0 Bft) S 180 0 min 0 lux 7,9 C 11,6 C
06.09.2009 21:15 11,6 C 12,7 C 12,6 C 79 % 1024 hPa 0,0 l/m 0,0 m/s (0 Bft) S 180 0 min 0 lux 8,1 C 11,6 C
06.09.2009 21:20 11,4 C 12,6 C 12,5 C 79 % 1024 hPa 0,0 l/m 0,0 m/s (0 Bft) S 180 0 min 0 lux 7,9 C 11,4 C
06.09.2009 21:25 11,2 C 12,4 C 12,5 C 79 % 1024 hPa 0,0 l/m 0,0 m/s (0 Bft) S 180 0 min 0 lux 7,7 C 11,2 C
06.09.2009 21:30 11,2 C 12,4 C 12,5 C 79 % 1024 hPa 0,0 l/m 0,0 m/s (0 Bft) S 180 0 min 0 lux 7,7 C 11,2 C
06.09.2009 21:35 11,1 C 12,2 C 12,5 C 80 % 1024 hPa 0,0 l/m 0,0 m/s (0 Bft) S 180 0 min 0 lux 7,8 C 11,1 C
06.09.2009 21:40 11,0 C 12,0 C 12,5 C 81 % 1024 hPa 0,0 l/m 0,0 m/s (0 Bft) S 180 0 min 0 lux 7,9 C 11,0 C
06.09.2009 21:45 10,8 C 11,8 C 12,3 C 81 % 1024 hPa 0,0 l/m 0,0 m/s (0 Bft) S 180 0 min 0 lux 7,7 C 10,8 C
06.09.2009 21:50 10,8 C 11,8 C 12,0 C 81 % 1024 hPa 0,0 l/m 0,0 m/s (0 Bft) S 180 0 min 0 lux 7,7 C 10,8 C
06.09.2009 21:55 10,7 C 11,6 C 11,7 C 82 % 1024 hPa 0,0 l/m 0,0 m/s (0 Bft) S 180 0 min 0 lux 7,8 C 10,7 C
06.09.2009 22:00 10,5 C 11,5 C 11,6 C 83 % 1024 hPa 0,0 l/m 0,0 m/s (0 Bft) S 180 0 min 0 lux 7,7 C 10,5 C
06.09.2009 22:05 10,5 C 11,5 C 11,6 C 83 % 1024 hPa 0,0 l/m 0,0 m/s (0 Bft) S 180 0 min 0 lux 7,7 C 10,5 C
06.09.2009 22:10 10,4 C 11,4 C 11,8 C 83 % 1024 hPa 0,0 l/m 0,0 m/s (0 Bft) S 180 0 min 0 lux 7,6 C 10,4 C
06.09.2009 22:15 10,3 C 11,3 C 11,9 C 83 % 1024 hPa 0,0 l/m 0,0 m/s (0 Bft) S 180 0 min 0 lux 7,5 C 10,3 C
06.09.2009 22:20 10,2 C 11,1 C 11,7 C 83 % 1024 hPa 0,0 l/m 0,0 m/s (0 Bft) S 180 0 min 0 lux 7,4 C 10,2 C
06.09.2009 22:25 10,1 C 11,1 C 11,2 C 84 % 1024 hPa 0,0 l/m 0,0 m/s (0 Bft) S 180 0 min 0 lux 7,5 C 10,1 C
06.09.2009 22:30 10,0 C 11,1 C 11,7 C 84 % 1024 hPa 0,0 l/m 0,0 m/s (0 Bft) S 180 0 min 0 lux 7,4 C 10,0 C
06.09.2009 22:35 10,0 C 10,9 C 11,6 C 84 % 1024 hPa 0,0 l/m 0,0 m/s (0 Bft) S 180 0 min 0 lux 7,4 C 10,0 C
06.09.2009 22:40 9,9 C 10,9 C 11,4 C 84 % 1024 hPa 0,0 l/m 0,0 m/s (0 Bft) S 180 0 min 0 lux 7,3 C 9,9 C
06.09.2009 22:45 9,9 C 10,9 C 11,5 C 85 % 1024 hPa 0,0 l/m 0,0 m/s (0 Bft) S 180 0 min 0 lux 7,5 C 9,9 C
06.09.2009 22:50 9,8 C 10,8 C 11,3 C 85 % 1024 hPa 0,0 l/m 0,0 m/s (0 Bft) S 180 0 min 0 lux 7,4 C 9,8 C
06.09.2009 22:55 9,8 C 10,7 C 11,3 C 85 % 1024 hPa 0,0 l/m 0,0 m/s (0 Bft) S 180 0 min 0 lux 7,4 C 9,8 C
06.09.2009 23:00 9,7 C 10,6 C 11,1 C 86 % 1024 hPa 0,0 l/m 0,0 m/s (0 Bft) S 180 0 min 0 lux 7,5 C 9,7 C
06.09.2009 23:05 9,6 C 10,6 C 10,8 C 86 % 1024 hPa 0,0 l/m 0,0 m/s (0 Bft) S 180 0 min 0 lux 7,4 C 9,6 C
06.09.2009 23:10 9,6 C 10,5 C 10,9 C 86 % 1024 hPa 0,0 l/m 0,0 m/s (0 Bft) S 180 0 min 0 lux 7,4 C 9,6 C
06.09.2009 23:15 9,5 C 10,5 C 11,0 C 86 % 1024 hPa 0,0 l/m 0,0 m/s (0 Bft) S 180 0 min 0 lux 7,3 C 9,5 C
06.09.2009 23:20 9,5 C 10,4 C 11,1 C 86 % 1024 hPa 0,0 l/m 0,0 m/s (0 Bft) S 180 0 min 0 lux 7,3 C 9,5 C
06.09.2009 23:25 9,5 C 10,3 C 11,2 C 86 % 1024 hPa 0,0 l/m 0,0 m/s (0 Bft) S 180 0 min 0 lux 7,3 C 9,5 C
06.09.2009 23:30 9,4 C 10,3 C 10,7 C 86 % 1024 hPa 0,0 l/m 0,0 m/s (0 Bft) S 180 0 min 0 lux 7,2 C 9,4 C
06.09.2009 23:35 9,4 C 10,2 C 10,8 C 86 % 1024 hPa 0,0 l/m 0,0 m/s (0 Bft) S 180 0 min 0 lux 7,2 C 9,4 C
06.09.2009 23:40 9,3 C 10,1 C 10,8 C 86 % 1024 hPa 0,0 l/m 0,0 m/s (0 Bft) S 180 0 min 0 lux 7,1 C 9,3 C
06.09.2009 23:45 9,2 C 10,0 C 10,5 C 87 % 1024 hPa 0,0 l/m 0,0 m/s (0 Bft) S 180 0 min 0 lux 7,2 C 9,2 C
06.09.2009 23:50 9,2 C 9,9 C 10,7 C 87 % 1024 hPa 0,0 l/m 0,0 m/s (0 Bft) S 180 0 min 0 lux 7,2 C 9,2 C
06.09.2009 23:55 9,1 C 9,9 C 10,4 C 87 % 1024 hPa 0,0 l/m 0,0 m/s (0 Bft) S 180 0 min 0 lux 7,1 C 9,1 C
_ Min-Zeit 04:55 04:50 06:15 12:50 00:00 - 00:00 - - - - 04:55 04:55
Minimum _ 4,5 C 5,2 C 6,0 C 54 % 1024 hPa - 0,0 m/s (0 Bft) - - - - 3,3 C 4,5 C
_ Max-Zeit 17:35 11:55 12:45 03:25 10:15 00:00 13:00 - - 08:26 14:35 11:55 15:55
Maximum _ 18,4 C 22,7 C 19,4 C 93 % 1026 hPa 0,0 l/m 5,4 m/s
W (3 Bft)
- - 6 min 114 klux 11,2 C 18,3 C
Durchschnitt _ 11,4 C 12,5 C 12,2 C 78 % 1025 hPa #0,0 l/m 0,9 m/s (1 Bft) W - #2:41 h 15,9 klux 7,3 C 10,9 C